格洛纳斯-759 COSMOS 2235 [GLONASS]

导读

COSMOS 2235是独联体(CIS)发射的GLONASS(格洛纳斯)导航卫星,于1993年2月17日升空,属于俄罗斯全球卫星导航系统的组网卫星。GLONASS是全球第二个投入运行的全球卫星导航系统,采用中圆地球轨道,卫星轨道高度约19100千米,倾角64.8°,运行周期约11小时15分钟,可为全球提供全天候定位、导航与授时服务,在高纬度地区拥有独特的覆盖优势。该卫星为GLONASS系统早期组网与系统正式投入运行提供了重要支撑。

Basic Information
目录编号:
22514
目录名称:
COSMOS 2235 (GLONASS)
国际标识:
1993-010C
轨道中心:
EARTH
卫星名称:
格洛纳斯-759
卫星全名:
格洛纳斯-759 COSMOS 2235 [GLONASS]
卫星状态:
在轨 (已飞行12168 天)
发射日期:
1993-02-17 UTC
国别 :
俄罗斯(独联体) (CIS)
星等 :
--
Orbit Information
数据来源 国际轨道数据 AOE轨道数据
星历时间 2026-06-11T17:03:13+0800
1天前
查看轨道信息
2026-06-13T03:00:00+0800
4小时前
查看轨道信息
半长轴 25507.985km 25507.937km
偏心率 0.0007913 0.0007851
轨道倾角 64.910° 64.912°
近地点辐角 209.354° 208.493°
升交点赤经 70.504° 70.455°
平近点角 334.513° 340.488°
近地点 19109.663km 19109.773km
远地点 19150.033km 19149.827km
周期 675.731分钟 675.729分钟
每日圈数 2.131025 2.131031
Detailed Information
平衡模式:
三轴稳定
覆盖范围:
全球
运营商:
列舍特涅夫卫星信息系统
运营商所在国:
俄罗斯
制造商(研发单位):
列舍特涅夫卫星信息系统
制造商所在国:
俄罗斯
使用方式:
暂无
Satellite Introduction
格洛纳斯(GLONASS )是苏联/俄罗斯研制卫星导航系统。标准配置为24颗卫星,其中18颗卫星就能保证该系统为俄罗斯境内用户提供全部服务。该卫星已退役。
2D Orbit Map
3D Orbit Map
Orbit Altitude Analysis Chart
Orbit Inclination Analysis Chart
Orbit Comprehensive Analysis Chart
View Comprehensive Chart